User: anonymous   Login
Location: Mococo
(38.0255°N, 122.1161°W)
Time: 20:18:53
(UTC+00:00)
Language:

Cosmos 2082 - Orbit

View from above orbital plane
View from above orbital plane
View from above satellite
View from above satellite

Ground track
Ground track

The orbit is defined by the following mean orbital elements,

1 20624U          26105.99987762 +.00000000 +00000-0 +14457-3 0 00002
2 20624  71.0401 302.5300 0013896 154.5875 205.5934 14.14838959    04
Epoch (UTC): 15 April 2026 23:59:49
Eccentricity: 0.0013896
inclination: 71.0401°
perigee height: 833 km
apogee height: 853 km
right ascension of ascending node: 302.5300°
argument of perigee: 154.5875°
revolutions per day: 14.14838959
mean anomaly at epoch: 205.5934°

The dashed part of the orbit path shows where the satellite is in the earth's shadow,  

DLR